Regional Weather Roundup
Issued by NWS Sioux Falls, SD

Home | Current Version | Previous Version | Text Only | Print | Product List | Glossary On
Versions: 1 2 3 4 5 6 7 8 9 10 11 12 13 14 15 16 17 18 19 20 21 22 23 24 25 26 27 28 29 30 31 32 33 34 35 36 37 38 39 40 41 42 43 44 45 46 47 48 49 50
000
ASUS43 KFSD 032310
RWRFSD

WEATHER ROUNDUP FOR SE SOUTH DAKOTA/SW MINNESOTA/NW IOWA
NATIONAL WEATHER SERVICE SIOUX FALLS SD
500 PM CST TUE MAR 03 2015

NOTE: "FAIR" INDICATES FEW OR NO CLOUDS BELOW 12,000 FEET WITH NO
SIGNIFICANT WEATHER AND OR OBSTRUCTIONS TO VISIBILITY.


SDZ038>040-050-052>070-040000-
SOUTHEAST SOUTH DAKOTA

CITY           SKY/WX    TMP DP  RH WIND       PRES   REMARKS
CHAMBERLAIN    SUNNY     19   3  51 NW16      30.02S WCI   4
HURON          SUNNY     16   4  59 NW17      30.03R WCI   0
MADISON        MOCLDY    12   5  73 NW23G30   29.97R WCI  -7
MITCHELL         N/A     18   5  57 NW24G30   30.04R WCI   0
SIOUX FALLS    PTSUNNY   15   6  67 N20G30    29.99R BLWGSNOWWCI  -2
WINNER         FAIR      20   3  48 NW15      30.02S WCI   6
YANKTON        SUNNY     19   3  49 NW23G29   30.03S WCI   2
$$

MNZ071-072-080-081-089-090-097-098-040000-
SOUTHWEST MINNESOTA

CITY           SKY/WX    TMP DP  RH WIND       PRES   REMARKS
FAIRMONT       MOSUNNY   18   9  68 W26G32    29.88R WCI  -1
JACKSON        LGT SNOW  18   9  68 NW21G28   29.91R WCI   1
LUVERNE        MOSUNNY   18   9  68 NW20G25   29.99R WCI   1
MARSHALL       MOSUNNY   12   1  62 NW24      29.96R WCI  -8
MONTEVIDEO     PTSUNNY   16  12  86 N18G29    29.94R WCI  -1
PIPESTONE      MOSUNNY   12   7  79 NW16G26   29.94R HAZE    WCI  -4
REDWOOD FALLS  PTSUNNY   15   5  64 NW21G30   29.92R WCI  -2
WINDOM         LGT SNOW  16   9  73 W24G31    29.92R WCI  -3
WORTHINGTON    CLOUDY    14   5  67 NW24G31   29.94R WCI  -5
$$

IAZ001>003-012>014-020>022-031-032-NEZ013-014-SDZ071-040000-
NORTHWEST IOWA

CITY           SKY/WX    TMP DP  RH WIND       PRES   REMARKS
CHEROKEE       SUNNY     21  11  65 NW17G29   29.95R WCI   7
DENISON        MOSUNNY   27  16  63 NW18      29.90R WCI  13
ESTHERVILLE    PTSUNNY   18  10  71 NW25G32   29.90R WCI   0
LE MARS        MOSUNNY   21   9  58 NW21G32   29.98S WCI   6
ORANGE CITY    PTSUNNY   19   9  63 NW14G29   29.96R WCI   6
SHELDON        CLOUDY    18   9  68 NW24G32   29.94R WCI   0
SIOUX CITY     SUNNY     24   8  50 NW26      29.97R WCI   8
SPENCER        FLURRIES  19  10  68 NW23G36   29.93R WCI   2
STORM LAKE     MOSUNNY   21  12  68 NW25G33   29.91R WCI   4
$$

ABBREVIATIONS USED IN REMARKS
   TC - TEMPERATURE IN CELSIUS
  WCI - WIND CHILL INDEX
   HX - HEAT INDEX
  VSB - VISIBILITY




USA.gov is the U.S. government's official web portal to all federal, state and local government web resources and services.